Flag for Japan Weather past 2 weeks in Fukuoka, Japan

Now
79 °F

Sprinkles. Partly cloudy.


Feels Like: 81 °F
Forecast: 72 / 83 °F
Wind: 3 mph from South

Location: Fukuoka Airport

Current Time: Sep 3, 2015 at 10:04:56 PM

Latest Report: Sep 3, 2015 at 9:30 PM


Visibility: N/A

Pressure: 29.86 "Hg

Humidity: 74%

Dew point: 70 °F

Location of FukuokaLocation

Historic Weather in Fukuoka — Graph

°F

Fukuoka temperature yesterday

Maximum temperature yesterday: 82 °F (at 11:00 AM)
Minimum temperature yesterday: 72 °F (at 6:00 AM)
Average temperature yesterday: 76 °F

Past Weeks' High & Low Weather Summary

 TemperatureHumidityPressure
High90 °F (Aug 21, 2:00 PM)94% (Aug 20, 4:30 AM)29.92 "Hg (Aug 20, 4:30 AM)
Low70 °F (Aug 26, 5:00 AM)37% (Aug 27, 5:30 PM)28.59 "Hg (Aug 25, 7:30 AM)
Average78 °F80%29.72 "Hg
* Reported Aug 19 9:00 PM — Sep 3 9:00 PM, Fukuoka, Weather by CustomWeather, © 2015

Note: Actual official high and low records may vary slightly from our data, if they occured in-between our weather recording intervals... More about our weather records

Advertising

Fukuoka weather history for previous 24 hours

 ConditionsComfort  
Time TempWeatherWind HumidityBarometerVisibility
9:00 PM
Thu, Sep 3
79 °FPassing clouds.3 mph74%29.86 "HgN/A
8:30 PM79 °FPassing clouds.2 mph74%29.86 "HgN/A
8:00 PM79 °FPassing clouds.2 mph74%29.86 "HgN/A
7:30 PM79 °FPassing clouds.6 mph70%29.83 "HgN/A
7:00 PM79 °FPassing clouds.7 mph70%29.83 "HgN/A
6:30 PM81 °FScattered clouds.9 mph66%29.83 "HgN/A
6:00 PM81 °FScattered clouds.7 mph66%29.83 "HgN/A
5:30 PM82 °FBroken clouds.7 mph66%29.83 "HgN/A
5:00 PM82 °FBroken clouds.12 mph66%29.83 "HgN/A
4:30 PM82 °FBroken clouds.13 mph62%29.83 "HgN/A
4:00 PM82 °FPartly sunny.10 mph62%29.83 "HgN/A
3:30 PM82 °FPartly sunny.13 mph62%29.80 "HgN/A
3:00 PM82 °FPartly sunny.13 mph62%29.80 "HgN/A
2:30 PM82 °FScattered clouds.10 mph66%29.83 "HgN/A
2:00 PM84 °FPartly sunny.8 mph62%29.83 "HgN/A
1:30 PM84 °FPartly sunny.10 mph62%29.80 "HgN/A
1:00 PM84 °FScattered clouds.9 mph62%29.83 "HgN/A
12:30 PM84 °FPassing clouds.12 mph62%29.83 "HgN/A
12:00 PM82 °FBroken clouds.5 mph70%29.83 "HgN/A
11:30 AM82 °FPartly sunny.5 mph66%29.83 "HgN/A
11:00 AM81 °FPartly sunny.6 mph70%29.83 "HgN/A
10:30 AM79 °FPartly sunny.8 mph70%29.83 "HgN/A
10:00 AM79 °FPartly sunny.7 mph74%29.86 "HgN/A
9:30 AM77 °FPartly sunny.8 mph79%29.86 "HgN/A
9:00 AM75 °FPartly sunny.7 mph83%29.86 "HgN/A
8:30 AM72 °FBroken clouds.6 mph94%29.86 "HgN/A
8:00 AM72 °FBroken clouds.7 mph88%29.86 "HgN/A
7:30 AM72 °FBroken clouds.10 mph88%29.86 "HgN/A
7:00 AM70 °FLight rain. Broken clouds.10 mph94%29.89 "HgN/A
6:30 AM70 °FLight rain. Broken clouds.13 mph94%29.89 "Hg5 mi
6:00 AM70 °FLight rain. Broken clouds.9 mph94%29.86 "HgN/A
5:46 AM70 °FLight rain. Partly cloudy.9 mph94%29.86 "Hg5 mi
5:30 AM70 °FLight rain. Fog.10 mph94%29.86 "Hg3 mi
5:00 AM72 °FRain. Fog.5 mph88%29.86 "Hg3 mi
4:30 AM70 °FLight rain. Partly cloudy.9 mph94%29.86 "Hg5 mi
4:00 AM72 °FLight rain. Partly cloudy.6 mph88%29.86 "HgN/A
3:30 AM72 °FPartly cloudy.5 mph88%29.86 "HgN/A
3:00 AM72 °FPassing clouds.8 mph88%29.89 "HgN/A
2:30 AM72 °FLight rain. Partly cloudy.10 mph88%29.89 "HgN/A
2:00 AM72 °FLight rain. Partly cloudy.10 mph88%29.89 "HgN/A
1:30 AM73 °FLight rain. Partly cloudy.9 mph78%29.89 "HgN/A
12:30 AM73 °FPartly cloudy.2 mph78%29.89 "HgN/A
12:00 AM72 °FPartly cloudy.5 mph83%29.89 "HgN/A
11:30 PM
Wed, Sep 2
72 °FPartly cloudy.5 mph83%29.92 "HgN/A
11:00 PM72 °FPassing clouds.6 mph83%29.92 "HgN/A
10:30 PM72 °FPartly cloudy.8 mph83%29.89 "HgN/A
10:00 PM72 °FPassing clouds.8 mph83%29.89 "HgN/A
Weather by CustomWeather, © 2015

See weather overviewHow to use our weather pages